User: anonymous   Login
Location: Newark
(30.1000°N, 109.4667°E)
Time: 22:06:10
(UTC+00:00)
Language:

Explorer 11/Cluster Stage 4 - Orbit

View from above orbital plane
View from above orbital plane
View from above satellite
View from above satellite

Ground track
Ground track

The orbit data is extracted from the following two-line orbital elements,

1   107U 61013A   20049.43629825  .00000245  00000-0  14870-4 0  9998
2   107  28.7863 139.2469 0547210  81.1413 285.0687 14.08899884948832
Epoch (UTC): 18 February 2020 10:28:16
Eccentricity: 0.0547210
inclination: 28.7863°
perigee height: 467 km
apogee height: 1259 km
right ascension of ascending node: 139.2469°
argument of perigee: 81.1413°
revolutions per day: 14.08899884
mean anomaly at epoch: 285.0687°
orbit number at epoch: 94883

The dashed part of the orbit path shows where the satellite is in the earth's shadow,  

DLR